Content
SEND FEEDBACK

Daily
Averages
Monthly
Summary
United States of America

MERIZO, GUAM


Home > North America > United States > Guam
Elevation: 10 feet     Latitude: 13 14N     Longitude: 144 39E

WEATHER
 
SELECT A DAY
Number of Records: 342,038;   Date Range: 1/1/95 - 7/29/14
 
SHARE

PRINT THIS DATA

[ ← Previous Day ]
WEATHER ALMANAC - MAY 19, 2013
[ Next Day → ]
[ °C ]   °F
Weather ElementAverageHighLow
Temperature82.1 °F86 °F (12:55 pm)76.6 °F (4:55 am)
Dewpoint74.6 °F75.4 °F (11:55 am)73.2 °F (10:55 am)
Humidity78.2 %90 % (3:55 am)67 % (10:55 am)
Barometer29.86 in29.90 in (8:55 am)29.82 in (2:55 pm)
Wind Speed8.1 mph12.7 mph (4:55 pm)
Weather ElementAverage
Visibility10 mi
Wind DirectionESE (102.4 °)

Weather ElementTotal
Precipitation---
Cooling Degree Days16.3 (Base 65)
Growing Degree Days31.3 (Base 50)
Averaged from 33 records on May 19, 2013
WEATHER CONDITIONS BREAKOUT
WIND DIRECTION BREAKOUT
WEATHER BY HOUR - MAY 19, 2013
[ °C ]   °F
Local TimeTemperatureDewpointHumidityBarometerVisibilityWind DirectionWind SpeedGust SpeedPrecipitationEventsConditions
1:55 AM78.1 °F74.1 °F88 %29.86 in10.0 miENE (70°)4.6 mphClear
2:55 AM78.1 °F74.3 °F88 %29.84 in10.0 miCalmClear
3:55 AM77.4 °F74.3 °F90 %29.84 in10.0 miESE (110°)4.6 mphClear
4:55 AM76.6 °F73.6 °F90 %29.85 in10.0 miESE (110°)3.5 mphPartly Cloudy
5:55 AM77.2 °F73.9 °F90 %29.86 in10.0 miENE (70°)5.8 mphPartly Cloudy
6:55 AM79.0 °F75.0 °F88 %29.88 in10.0 miENE (60°)5.8 mphClear
7:55 AM81.5 °F74.7 °F80 %29.89 in10.0 miEast (80°)8.1 mphClear
8:24 AM84.2 °F75.2 °F74 %29.89 in10.0 miENE (60°)9.2 mphMostly Cloudy
8:55 AM83.3 °F74.7 °F75 %29.90 in10.0 miEast (90°)6.9 mphScattered Clouds
8:56 AM82.4 °F75.2 °F79 %29.90 in10.0 miEast (90°)6.9 mphMostly Cloudy
9:02 AM82.4 °F73.4 °F74 %29.90 in10.0 miVariable5.8 mphScattered Clouds
9:04 AM84.2 °F73.4 °F70 %29.90 in10.0 miENE (60°)8.1 mphMostly Cloudy
9:07 AM84.2 °F75.2 °F74 %29.90 in10.0 miEast (100°)6.9 mphScattered Clouds
9:12 AM82.4 °F73.4 °F74 %29.90 in10.0 miEast (100°)5.8 mphMostly Cloudy
9:55 AM83.5 °F74.7 °F75 %29.89 in10.0 miSE (130°)8.1 mphScattered Clouds
10:55 AM85.1 °F73.2 °F67 %29.88 in10.0 miEast (100°)6.9 mphPartly Cloudy
11:55 AM85.3 °F75.4 °F72 %29.87 in10.0 miSE (130°)10.4 mphPartly Cloudy
12:55 PM86.0 °F75.4 °F70 %29.85 in10.0 miESE (120°)11.5 mphPartly Cloudy
1:55 PM85.8 °F75.0 °F70 %29.83 in10.0 miESE (120°)11.5 mphPartly Cloudy
2:55 PM85.6 °F75.2 °F71 %29.82 in10.0 miSE (140°)11.5 mphClear
3:38 PM84.2 °F75.2 °F74 %29.83 in10.0 miESE (120°)10.4 mphMostly Cloudy
3:47 PM84.2 °F75.2 °F74 %29.83 in10.0 miEast (100°)8.1 mphScattered Clouds
3:55 PM84.7 °F75.0 °F72 %29.82 in10.0 miESE (120°)11.5 mphScattered Clouds
4:16 PM84.2 °F75.2 °F74 %29.82 in10.0 miESE (110°)10.4 mphMostly Cloudy
4:26 PM84.2 °F75.2 °F74 %29.82 in10.0 miSE (130°)9.2 mphMostly Cloudy
4:55 PM83.8 °F74.5 °F73 %29.83 in10.0 miSE (140°)12.7 mphPartly Cloudy
5:55 PM82.2 °F74.7 °F78 %29.84 in10.0 miESE (120°)10.4 mphPartly Cloudy
6:55 PM81.0 °F74.8 °F82 %29.86 in10.0 miSE (130°)9.2 mphScattered Clouds
7:55 PM80.8 °F74.8 °F82 %29.87 in10.0 miSE (130°)9.2 mphClear
8:55 PM80.2 °F74.5 °F83 %29.88 in10.0 miSE (130°)10.4 mphClear
9:55 PM79.9 °F75.4 °F86 %29.88 in10.0 miSE (130°)9.2 mphClear
10:55 PM79.5 °F74.5 °F84 %29.88 in10.0 miSE (140°)8.1 mphClear
11:55 PM79.0 °F74.3 °F85 %29.86 in10.0 miSE (140°)5.8 mphClear
Hourly data recorded from PGUA, located miles away from Merizo, Guam







STORIES FROM OUR PARTNERS